Retour au catalogue

SL-12 DEB

LostHEO
NORAD 43579·DEBRIS·🇷🇺 Russia

Lancé Mar 1, 2010 depuis Baikonur Cosmodrome

Loading…

Prochains Passages (prochaines 24 heures)

TLE

PériméSource: Space-Track

Époque: Mar 30, 2019, 22:33 UTC

1 43579U 10007AF  19089.93979409  .00067152  00000-0  56352-1 0  9996
2 43579  65.2171  65.0963 5758746  32.8536 352.4374  4.30221966 12374

Suivez SL-12 DEB en temps réel avec AllMySat

Download on the App Store